Weather History for New Orleans Lakefront, LA

Change the Weather History Date:

Sunday, December 9, 2012

  Actual Average Record
Temperature  
Mean Temperature 71 °F 57 °F  
Max Temperature 80 °F 66 °F 82 °F (1991)
Min Temperature 61 °F 48 °F 29 °F (1973)
Degree Days  
Heating Degree Days 0 9  
Month to date heating degree days 3 77  
Since 1 July heating degree days 192 241  
Cooling Degree Days 6 1  
Month to date cooling degree days 22 9  
Year to date cooling degree days 3396 2987  
Growing Degree Days 20 (Base 50)    
Moisture  
Dew Point 66 °F    
Average Humidity 82    
Maximum Humidity 93    
Minimum Humidity 71    
Precipitation  
Precipitation 0.01 in 0.17 in 3.45 in (1967)
Month to date precipitation 2.87 1.50  
Year to date precipitation 66.00 58.71  
Snow  
Snow 0.00 in - - ()
Month to date snowfall 0.0  
Since 1 July snowfall 0.0  
Snow Depth 0.00 in    
Sea Level Pressure  
Sea Level Pressure 29.95 in    
Wind  
Wind Speed 10 mph (SSE)    
Max Wind Speed 24 mph    
Max Gust Speed 29 mph    
Visibility 9 miles    
Events Rain    
T = Trace of Precipitation, MM = Missing Value Source: NWS Daily Summary

Daily Weather History Graph

Daily Weather History Graph

Search for Another Location

Airport:

Trip Planner

Search our weather history database for the weather conditions in past years. The results will help you decide how hot, cold, wet, or windy it might be!

Date:

Astronomy

Dec. 09, 2012 Rise Set
Actual Time 6:44 AM CST 5:00 PM CST
Civil Twilight 6:18 AM CST 5:26 PM CST
Nautical Twilight 5:48 AM CST 5:56 PM CST
Astronomical Twilight 5:19 AM CST 6:25 PM CST
Moon 2:30 AM CST (12/9) 1:56 PM CST (12/9)
Length of Visible Light 11h 08m
Length of Day
10h 15m
Waning Crescent, 18% of the Moon is Illuminated
Dec 9
Waning Crescent
Dec 13
New
Dec 19
First Quarter
Dec 28
Full
Jan 4
Last Quarter

Hourly Weather History & Observations

Time (CST) Temp. Dew Point Humidity Pressure Visibility Wind Dir Wind Speed Gust Speed Precip Events Conditions
12:53 AM 64.0 °F 62.1 °F 93% 29.96 in 4.0 mi SSE 6.9 mph - N/A   Clear
1:53 AM 63.0 °F 61.0 °F 93% 29.95 in 6.0 mi SSE 5.8 mph - N/A   Clear
2:53 AM 62.1 °F 60.1 °F 93% 29.95 in 5.0 mi SSE 5.8 mph - N/A   Partly Cloudy
3:53 AM 64.0 °F 62.1 °F 93% 29.95 in 5.0 mi SE 5.8 mph - N/A   Overcast
4:53 AM 64.0 °F 62.1 °F 93% 29.96 in 6.0 mi SE 6.9 mph - N/A   Scattered Clouds
5:53 AM 64.9 °F 63.0 °F 93% 29.98 in 7.0 mi ESE 6.9 mph - N/A   Overcast
6:53 AM 66.0 °F 63.0 °F 90% 29.99 in 10.0 mi ESE 5.8 mph - N/A   Overcast
7:53 AM 66.9 °F 63.0 °F 87% 29.99 in 10.0 mi SE 9.2 mph - N/A   Overcast
8:53 AM 70.0 °F 64.9 °F 84% 30.00 in 10.0 mi SE 10.4 mph - N/A   Overcast
9:53 AM 73.0 °F 68.0 °F 84% 30.00 in 10.0 mi SE 8.1 mph - N/A   Overcast
10:00 AM 73.4 °F 68.0 °F 83% 30.02 in 10.0 mi SE 10.4 mph - N/A   Overcast
10:30 AM 75.2 °F 68.0 °F 78% 30.01 in 10.0 mi SSE 12.7 mph - 0.01 in   Overcast
10:53 AM 75.9 °F 69.1 °F 79% 29.99 in 10.0 mi South 13.8 mph - 0.01 in   Overcast
11:34 AM 77.0 °F 68.0 °F 74% 29.99 in 10.0 mi South 16.1 mph - N/A   Overcast
11:53 AM 78.8 °F 68.0 °F 69% 29.98 in 10.0 mi South 19.6 mph 25.3 mph N/A   Mostly Cloudy
12:08 PM 78.8 °F 68.0 °F 69% 29.97 in 10.0 mi South 16.1 mph - N/A   Scattered Clouds
12:53 PM 79.0 °F 68.0 °F 69% 29.93 in 10.0 mi South 19.6 mph - N/A   Mostly Cloudy
1:03 PM 78.8 °F 68.0 °F 69% 29.94 in 10.0 mi South 18.4 mph 24.2 mph N/A   Mostly Cloudy
1:13 PM 78.8 °F 66.2 °F 65% 29.94 in 10.0 mi SSW 19.6 mph 26.5 mph N/A   Mostly Cloudy
1:53 PM 77.0 °F 66.9 °F 71% 29.91 in 10.0 mi South 17.3 mph 26.5 mph N/A   Mostly Cloudy
2:53 PM 77.0 °F 66.9 °F 71% 29.91 in 10.0 mi South 15.0 mph - 0.00 in Rain Light Rain
3:53 PM 75.9 °F 66.9 °F 74% 29.91 in 10.0 mi South 17.3 mph - 0.00 in   Mostly Cloudy
4:53 PM 75.0 °F 66.9 °F 76% 29.91 in 10.0 mi South 16.1 mph - N/A   Mostly Cloudy
5:00 PM 75.2 °F 66.2 °F 73% 29.93 in 10.0 mi South 15.0 mph - N/A   Mostly Cloudy
5:53 PM 73.0 °F 66.9 °F 81% 29.92 in 10.0 mi SSW 10.4 mph - N/A   Mostly Cloudy
6:00 PM 73.4 °F 66.2 °F 78% 29.94 in 10.0 mi South 10.4 mph - N/A   Overcast
6:53 PM 73.0 °F 68.0 °F 84% 29.93 in 10.0 mi South 10.4 mph - N/A   Overcast
7:53 PM 72.0 °F 69.1 °F 91% 29.91 in 10.0 mi South 11.5 mph - N/A   Clear
8:17 PM 71.6 °F 69.8 °F 94% 29.93 in 10.0 mi South 12.7 mph - N/A   Partly Cloudy
8:53 PM 72.0 °F 69.1 °F 91% 29.91 in 10.0 mi South 11.5 mph - N/A   Mostly Cloudy
9:53 PM 71.1 °F 68.0 °F 90% 29.90 in 10.0 mi South 12.7 mph - N/A   Partly Cloudy
10:26 PM 71.6 °F 68.0 °F 88% 29.93 in 10.0 mi South 12.7 mph - N/A   Mostly Cloudy
10:53 PM 72.0 °F 68.0 °F 87% 29.91 in 10.0 mi South 12.7 mph - N/A   Overcast
11:25 PM 71.6 °F 68.0 °F 88% 29.93 in 10.0 mi South 12.7 mph - N/A   Overcast
11:53 PM 72.0 °F 69.1 °F 91% 29.91 in 10.0 mi South 12.7 mph - N/A   Overcast